Mmabatho, South Africa

4:56 AM SAST on May 22, 2018 (GMT +0200)
Mmabatho

Weather History for FAMM - December, 2012

Change the Weather History Date:

Tuesday, December 4, 2012

  Actual Average (WUND) Record (WUND)
Temperature  
Mean Temperature 73 °F -  
Max Temperature 88 °F - - (-1)
Min Temperature 58 °F - - (-1)
Cooling Degree Days 8    
Growing Degree Days 23 (Base 50)    
Moisture  
Dew Point 51 °F    
Average Humidity 50    
Maximum Humidity 82    
Minimum Humidity 13    
Precipitation  
Precipitation 0.00 in - - ()
Sea Level Pressure  
Sea Level Pressure 29.97 in    
Wind  
Wind Speed 8 mph ()    
Max Wind Speed 15 mph    
Max Gust Speed -    
Visibility 10.5 miles    
Events      
Averages and records for this station are not official NWS values.
T = Trace of Precipitation, MM = Missing Value Source: Averaged Metar Reports

Daily Weather History Graph

Daily Weather History Graph

Search for Another Location

Airport or City:

Astronomy

Dec. 04, 2012 Rise Set
Actual Time 5:18 AM SAST 6:58 PM SAST
Civil Twilight 4:52 AM SAST 7:24 PM SAST
Nautical Twilight 4:21 AM SAST 7:54 PM SAST
Astronomical Twilight 3:49 AM SAST 8:27 PM SAST
Moon 11:11 PM SAST (12/4) 10:06 AM SAST (12/4)
Length of Visible Light 14h 31m
Length of Day
13h 39m
Waning Gibbous, 72% of the Moon is Illuminated
Dec 4
Waning Gibbous
Dec 6
Last Quarter
Dec 13
New
Dec 20
First Quarter
Dec 28
Full

Hourly Weather History & Observations

Time (SAST) Temp. Dew Point Humidity Pressure Visibility Wind Dir Wind Speed Gust Speed Precip Events Conditions
12:00 AM 60.8 °F 53.6 °F 77% 30.01 in - NNE 8.1 mph - N/A   Unknown
1:00 AM 59.0 °F 53.6 °F 82% 30.01 in - NE 6.9 mph - N/A   Unknown
2:00 AM 60 °F 54 °F 74%  in - NNE 9.2 mph - -  
2:00 AM 59.0 °F 53.6 °F 82% 30.01 in - NNE 8.1 mph - N/A   Unknown
3:00 AM 59.0 °F 53.6 °F 82% 29.98 in - NNE 9.2 mph - N/A   Unknown
4:00 AM 59.0 °F 51.8 °F 77% 30.01 in - NNE 8.1 mph - N/A   Unknown
5:00 AM 59 °F 53 °F 75%  in 19 mi NNE 9.2 mph - -   Scattered Clouds
5:00 AM 59.0 °F 51.8 °F 77% 30.01 in 6.2 mi NNE 9.2 mph - N/A   Partly Cloudy
6:00 AM 59.0 °F 51.8 °F 77% 30.01 in 6.2 mi NE 9.2 mph - N/A   Partly Cloudy
7:00 AM 64.4 °F 53.6 °F 68% 30.01 in 6.2 mi NE 13.8 mph - N/A   Partly Cloudy
8:00 AM 72 °F 55 °F 45%  in 19 mi NNE 13.8 mph - -   Scattered Clouds
8:00 AM 71.6 °F 53.6 °F 53% 30.01 in 6.2 mi NNE 12.7 mph - N/A   Partly Cloudy
9:00 AM 75.2 °F 55.4 °F 50% 30.01 in - NNE 15.0 mph - N/A   Clear
11:00 AM 80 °F 53 °F 29%  in 19 mi NNW 9.2 mph - -   Partly Cloudy
11:00 AM 78.8 °F 51.8 °F 39% 30.01 in 6.2 mi NNW 9.2 mph - N/A   Scattered Clouds
12:00 PM 78.8 °F 51.8 °F 39% 30.01 in 6.2 mi NW 9.2 mph - N/A   Scattered Clouds
1:00 PM 82.4 °F 51.8 °F 35% 29.98 in 6.2 mi NW 8.1 mph - N/A   Scattered Clouds
2:00 PM 86 °F 50 °F 19%  in 19 mi NW 8.1 mph - -   Mostly Cloudy
2:00 PM 86.0 °F 50.0 °F 29% 29.95 in 6.2 mi NW 8.1 mph - N/A   Mostly Cloudy
3:00 PM 86.0 °F 42.8 °F 22% 29.92 in 6.2 mi WNW 6.9 mph - N/A   Partly Cloudy
4:00 PM 87.8 °F 42.8 °F 21% 29.89 in 6.2 mi WNW 9.2 mph - N/A   Partly Cloudy
5:00 PM 87 °F 43 °F 13%  in 19 mi WNW 8.1 mph - -   Partly Cloudy
6:00 PM 77.0 °F 50.0 °F 39% 29.89 in 6.2 mi NNW 8.1 mph - N/A   Scattered Clouds
7:00 PM 77.0 °F 48.2 °F 36% 29.89 in 6.2 mi ENE 6.9 mph - N/A   Partly Cloudy
8:00 PM 75 °F 53 °F 36%  in 19 mi NE 6.9 mph - -   Scattered Clouds
8:00 PM 73.4 °F 51.8 °F 47% 29.92 in - NE 5.8 mph - N/A   Clear
9:00 PM 69.8 °F 51.8 °F 53% 29.95 in - ENE 10.4 mph - N/A   Unknown
10:00 PM 69.8 °F 50.0 °F 49% 29.95 in - NE 6.9 mph - N/A   Unknown
11:00 PM 69 °F 49 °F 39%  in - NNE 8.1 mph - -  
11:00 PM 68.0 °F 48.2 °F 49% 29.95 in - NNE 6.9 mph - N/A   Unknown